Location: Bassano Bresciano
(45.3167°N, 10.1167°E)
Time: 21:36:09
(UTC+00:00)

Daily predictions for brighter satellites

Satellite Brightness Start Highest point End
(mag) Time Altitude Azimuth Time Altitude Azimuth Time Altitude Azimuth
SL-08 RB Rocket 4.1 18:33:32 10° S 18:38:11 73° WSW 18:42:50 10° NNW
Okean-O 3.7 18:34:43 10° S 18:38:59 48° W 18:43:18 10° NNW
MetOp-A 4.2 18:35:07 10° SSE 18:40:24 65° ENE 18:45:42 10° N
ARGOS 4.0 18:36:16 10° S 18:41:31 54° W 18:46:47 10° NNW
Cosmos 482 Debris 3.8 18:38:27 10° WSW 18:41:32 57° NNW 18:43:40 10° NE
Cosmos 1408 3.3 18:39:01 10° N 18:42:18 33° ENE 18:45:32 10° SE
RESURS DK-1 3.4 18:40:40 10° SSE 18:43:59 24° ESE 18:47:20 10° NE
Cosmos 1300 3.7 18:41:37 10° SSW 18:45:19 52° W 18:49:05 10° N
CSL-04 Rocket 4.1 18:46:23 10° S 18:51:39 66° WSW 18:56:55 10° NNW
CENTAUR R/B 4.1 18:44:30 10° NW 18:52:23 50° WSW 19:00:50 10° S
Cosmos 2058 3.9 18:49:39 10° NNE 18:53:21 29° ENE 18:57:00 10° SE
CZ-2C R/B 3.4 18:50:12 10° N 18:55:17 57° WNW 19:00:24 10° SSW
Cosmos 1992 Rocket 4.3 18:51:34 10° NNW 18:56:38 50° ENE 19:01:42 10° SE
Cosmos 2058 Rocket 3.4 18:53:25 10° SSE 18:57:34 45° E 19:01:44 10° NNE
DMSP B5D2-2 4.2 18:52:44 10° NNE 18:58:01 87° WNW 19:03:16 10° SSW
Cosmos 2360 Rocket 2.8 18:53:24 10° NNW 18:58:57 58° WSW 19:04:28 10° S
ATLAS 3B R/B 3.2 18:52:29 10° NNW 18:59:20 53° NE 19:05:56 12° ESE
COSMOS 2487 2.3 18:58:06 10° S 19:01:28 68° ESE 19:04:52 10° NNE
Cosmos 1689 Rocket 4.3 18:59:23 10° N 19:01:54 29° WNW 19:04:24 10° SW
COSMOS 2428 3.0 18:56:52 10° NNW 19:02:31 53° ENE 19:07:47 12° SE
USA 186 2.0 18:59:25 10° S 19:02:38 71° W 19:05:47 10° NNW
Cosmos 1953 Rocket 3.5 18:58:39 10° N 19:03:02 84° E 19:07:22 10° S
USA 215 4.0 18:58:46 10° E 19:04:56 46° NNE 19:11:07 10° NW
SME Rocket 3.6 19:02:18 10° N 19:06:06 64° WNW 19:10:54 10° SSW
Cosmos 1092 Rocket 4.0 19:00:17 10° N 19:06:33 69° E 19:12:43 10° SSE
Cosmos 2333 4.3 19:01:47 10° NNW 19:07:36 87° WSW 19:13:19 10° SSE
Cosmos 1818 3.9 19:06:15 10° S 19:11:20 42° ESE 19:16:28 10° NE
FALCON 9 DEB 3.4 19:09:13 10° SSW 19:12:29 44° SE 19:15:47 10° ENE
Cosmos 909 Rocket 4.3 19:07:07 10° S 19:13:08 44° ESE 19:19:07 10° NE
ERS-2 3.6 19:12:00 10° N 19:15:27 41° WNW 19:18:53 10° SW
Cosmos 44 3.6 19:10:52 10° SSW 19:15:45 51° ESE 19:20:55 10° NE
Resurs 01 Rocket 2.4 19:12:45 15° SE 19:15:57 36° ENE 19:20:02 10° N
Cosmos 2219 Rocket 2.2 19:10:16 10° NNW 19:15:59 78° ENE 19:21:13 12° SSE
Cosmos 1455 2.0 19:15:09 10° S 19:18:52 71° E 19:22:37 10° NNE
ATLAS 5 CENTAUR R/B 4.4 19:20:14 10° WNW 19:23:13 18° NNW 19:26:30 10° NNE
Resurs 1-3 3.5 19:23:13 11° SSE 19:27:20 77° ENE 19:31:45 10° N
Cosmos 1633 4.1 19:26:55 10° NNE 19:29:33 19° ENE 19:30:05 18° E
IGS 5A 4.1 19:27:42 21° SE 19:29:56 39° ENE 19:33:49 10° N
Cosmos 1356 4.0 19:27:48 10° N 19:31:02 37° ENE 19:32:13 27° ESE
Lacrosse 5 rocket 3.8 19:28:02 10° WNW 19:31:12 21° NNW 19:34:30 10° NE
ATLAS 5 CENTAUR R/B 1.1 19:30:33 10° NW 19:32:21 47° SW 19:33:14 28° S
Abrixas rocket 3.6 19:32:16 10° SW 19:32:30 12° SSW 19:32:30 12° SSW
Cosmos 405 Rocket 3.0 19:31:30 10° N 19:35:26 49° ENE 19:37:21 26° SE
Cosmos 1428 Rocket 4.5 19:29:56 10° N 19:36:14 89° E 19:42:33 10° S
Cosmos 1140 Rocket 4.4 19:38:38 23° ESE 19:39:38 25° E 19:43:46 10° NE
SJ-6B 4.1 19:37:42 10° SSW 19:41:09 36° W 19:44:40 10° NNW
Cosmos 2279 Rocket 4.0 19:35:09 10° S 19:41:10 59° E 19:47:15 10° NNE
SPOT 5 4.4 19:40:17 16° E 19:41:36 17° ENE 19:44:39 10° NNE
Cosmos 2237 Rocket 2.8 19:37:21 10° NNW 19:42:43 42° ENE 19:45:36 24° ESE
Exosat Rocket 3.8 19:36:57 10° NNW 19:43:32 90° NNW 19:47:11 21° SSE
Spot 2 Rocket 4.5 19:41:32 23° ESE 19:43:37 31° ENE 19:48:04 10° N
BREEZE-M DEB (TANK) 3.6 19:39:10 10° W 19:43:51 86° N 19:48:44 13° E
BREEZE-M DEB (TANK) 4.3 19:42:18 10° W 19:45:36 67° N 19:54:44 10° ENE
SL-8 R/B 3.7 19:41:42 10° WNW 19:46:33 80° SSW 19:48:58 30° ESE
CZ-2C R/B 4.0 19:44:36 10° NNE 19:48:51 43° E 19:50:38 28° SSE
OBJECT-B 3.0 19:46:55 10° SSW 19:49:38 25° W 19:52:22 10° NW
Cosmos 2026 Rocket 4.1 19:43:53 10° NNW 19:49:56 72° W 19:56:01 10° S
Terra 3.6 19:50:06 15° ENE 19:51:10 16° ENE 19:54:06 10° NNE
MetOp-B 4.2 19:52:09 26° SE 19:55:06 63° ENE 20:00:25 10° N
Cosmos 2227 Rocket 2.9 19:57:04 29° ESE 19:57:49 30° ESE 20:02:42 10° NE
SPOT 1/Viking Rocket 3.8 19:58:13 31° SE 20:00:29 54° ENE 20:05:35 10° N
Cosmos 389 Rocket 2.3 20:00:14 38° S 20:01:29 79° E 20:05:02 10° NNE
Cosmos 2251 Rocket 3.7 19:56:16 10° SSW 20:01:38 74° WNW 20:07:00 10° NNE
Cosmos 2297 Rocket 2.4 20:02:12 25° SSE 20:05:06 44° ESE 20:10:27 10° NE
Cosmos 2333 Rocket 3.4 20:00:51 10° NW 20:06:06 38° WSW 20:10:56 12° S
SPOT 3 Rocket 3.6 20:03:45 24° S 20:06:59 79° WSW 20:12:12 10° NNW
Cosmos 2266 Rocket 4.3 20:00:58 10° N 20:07:12 51° ENE 20:09:47 33° SE
Cosmos 2219 3.5 20:05:52 32° SSE 20:07:45 42° ESE 20:13:02 10° NE
BREEZE-M DEB (TANK) 2.2 20:06:12 10° WNW 20:08:17 51° N 20:08:17 51° N
Cosmos 1190 Rocket 4.4 20:07:40 37° ESE 20:08:25 39° ESE 20:13:15 10° NE
ATLAS 2AS CENTAUR R/B 3.9 20:01:15 10° WSW 20:08:57 52° NW 20:16:29 10° NNE
Cosmos 1825 3.7 20:05:43 10° NNW 20:09:09 33° W 20:11:59 14° SSW
ARIANE 5 R/B 3.0 20:09:20 40° ESE 20:10:09 46° ENE 20:14:21 10° N
Ariane Rocket 4.3 20:08:01 10° SSW 20:12:38 36° W 20:17:18 10° NNW
Timation 2 Rocket 4.3 20:10:14 25° SSE 20:13:36 45° ESE 20:19:36 10° NE
RESURS DK-1 4.1 20:18:03 10° WSW 20:21:50 34° NW 20:25:40 10° NNE
Landsat 7 4.0 20:20:37 33° S 20:22:43 68° WSW 20:27:29 10° NNW
USA 245 3.1 20:24:37 73° SE 20:24:58 83° ENE 20:28:26 10° NNW
Genesis I 4.1 20:21:23 10° NNW 20:25:09 38° NE 20:25:22 38° NE
Cosmos-2242 2.9 20:25:50 62° ESE 20:26:00 62° E 20:30:17 10° NNE
Meteor 2-16 Rocket 4.5 20:21:26 10° N 20:27:33 62° ENE 20:29:25 43° SE
Cosmos 2180 Rocket 4.5 20:23:20 15° SSW 20:28:32 81° W 20:34:43 10° N
Cosmos 1655 Rocket 3.9 20:28:47 10° N 20:35:07 87° W 20:37:46 38° S
SL-16 R/B 2.8 20:31:21 10° NNW 20:36:45 41° NE 20:37:53 37° E
Cosmos 1980 3.8 20:32:22 10° NNW 20:38:03 73° WSW 20:39:45 46° S
TRAILBLAZER 4.5 20:37:58 10° NW 20:42:40 83° NE 20:42:58 77° ESE
Cosmos 2151 3.3 20:40:29 10° NNW 20:44:44 61° W 20:45:17 55° SW
COSMOS 2428 4.5 20:41:48 10° NW 20:46:25 25° WSW 20:49:49 15° SSW
Meteor 2-3 Rocket 3.7 20:41:07 10° NNW 20:46:55 83° W 20:48:26 51° S
Cosmos 2344 4.3 20:39:58 10° WSW 20:47:14 53° NW 20:55:08 10° NE
USA 215 3.2 20:45:38 47° SSE 20:47:42 75° SW 20:54:17 10° NW
Meteor 1-27 4.1 20:47:48 56° SSE 20:48:58 74° E 20:54:47 10° NNE
ATLAS 3B R/B 3.7 20:43:25 10° NW 20:49:56 41° WSW 20:53:12 27° SSW
Resurs 01 Rocket 3.6 20:50:18 17° SW 20:52:31 24° W 20:56:10 10° NW
ERS-1 Rocket 2.8 20:54:40 76° SE 20:55:02 85° ENE 21:00:06 10° NNW
Cosmos 407 Rocket 3.8 20:53:35 24° SW 20:56:38 62° WNW 21:01:46 10° NNE
Okean 3 Rocket 3.7 20:55:13 10° N 20:59:21 70° NNE 20:59:21 70° NNE
Cosmos 1766 Rocket 3.8 20:59:47 10° N 21:03:29 64° N 21:03:29 64° N
CARTOSAT-1 4.0 21:04:22 57° W 21:04:22 57° W 21:08:31 10° NNW
Cosmos 1633 4.3 21:01:14 10° NNW 21:04:10 28° W 21:04:10 28° W
Meteor 2-15 4.3 21:09:37 65° ESE 21:09:49 66° E 21:15:49 10° NNE
Lacrosse 5 rocket 4.0 21:08:41 10° NW 21:11:40 18° N 21:14:11 12° NE
Cosmos 1954 Rocket 3.9 21:12:17 76° NE 21:12:17 76° NE 21:17:05 10° NNE
Cosmos 1869 4.5 21:18:39 41° NNW 21:18:39 41° NNW 21:21:24 10° N
COSMOS 2455 2.9 21:18:15 61° ENE 21:18:15 61° ENE 21:23:29 10° NE
SPOT 5 3.2 21:19:30 56° W 21:19:30 56° W 21:23:49 10° NNW
Cosmos 1140 Rocket 4.4 21:18:31 24° WSW 21:21:09 44° WNW 21:26:05 10° N
Cosmos 2237 Rocket 3.3 21:21:41 10° NW 21:26:37 32° WSW 21:27:26 31° WSW
SeaSat 1 4.1 21:22:36 10° NE 21:24:38 23° NE 21:24:38 23° NE
Terra 2.2 21:28:58 61° WNW 21:28:58 61° WNW 21:33:09 10° NNW
Timation 1 Rocket 4.2 21:33:37 88° W 21:33:40 88° WNW 21:39:40 10° NNE
Cosmos 2082 3.7 21:39:13 75° N 21:39:13 75° N 21:44:25 10° NNE
Cosmos 2263 Rocket 3.9 21:42:46 21° ENE 21:42:46 21° ENE 21:44:56 10° NE
Cosmos 2227 Rocket 3.1 21:38:46 25° WSW 21:41:40 45° WNW 21:47:06 10° NNE
USA 229 DEB 4.4 21:37:10 10° NNW 21:44:12 49° NE 21:46:07 41° E
USA 229 4.5 21:37:16 10° NNW 21:44:17 49° NE 21:46:15 41° E
Cosmos 468 Rocket 4.3 21:39:31 10° NNW 21:43:44 61° NNW 21:43:44 61° NNW
Cosmos 2297 Rocket 3.8 21:44:15 10° WSW 21:49:18 32° NW 21:54:22 10° N
Cosmos 841 Rocket 4.3 21:47:24 10° NNW 21:51:30 45° NNE 21:51:30 45° NNE
Cosmos 1745 Rocket 4.1 21:50:40 10° N 21:56:33 66° NE 21:56:33 66° NE
NOSS 3-1 (A) 4.4 21:54:52 10° NNW 22:02:08 57° NE 22:04:04 47° E
Cosmos 1763 Rocket 4.3 21:59:17 10° NNW 22:02:58 45° NW 22:02:58 45° NW
S3M 4.1 22:08:54 70° NE 22:08:54 70° NE 22:14:38 10° N
SL-16 R/B 3.5 22:15:42 10° NW 22:19:46 31° W 22:19:46 31° W
Cosmos 540 Rocket 4.5 22:18:37 10° NNW 22:22:04 43° NNW 22:22:04 43° NNW
NOSS 3-1 (C) 3.9 22:20:51 10° NW 22:28:26 80° SW 22:28:42 79° SSW
Aureole 1 Rocket 4.4 22:38:07 47° NNW 22:38:07 47° NNW 22:41:46 10° NNE
Cosmos 1943 4.0 22:45:05 10° NNW 22:48:59 46° NW 22:48:59 46° NW
Lacrosse 5 rocket 3.7 22:47:47 10° NW 22:49:48 23° NNW 22:49:48 23° NNW
SeaSat 1 4.0 23:00:23 10° N 23:04:24 30° NW 23:04:24 30° NW
Cosmos 2315 Rocket 4.3 23:10:31 62° NNW 23:10:31 62° NNW 23:15:58 10° N
Cosmos 2184 Rocket 4.5 23:07:07 10° N 23:12:34 54° NE 23:12:34 54° NE
Cosmos 2263 Rocket 3.3 23:24:25 38° NW 23:24:25 38° NW 23:29:02 10° NNE
USA 281 3.3 23:33:03 73° NNE 23:33:03 73° NNE 23:39:09 10° NNW
Cosmos 1844 Rocket 3.7 23:39:31 40° NE 23:39:31 40° NE 23:43:06 10° NNE
Cosmos 2074 Rocket 4.3 23:38:13 10° N 23:43:22 62° NNW 23:43:22 62° NNW
SJ 16-02 4.2 23:56:01 11° ENE 23:56:01 11° ENE 23:56:22 10° ENE
